User: anonymous
Location: Karlovy Vary
(50.2170°N, 12.9000°E)
Time: 22:26:43
(UTC+02:00)
Language:

ISS - Orbit

View from above orbital plane
View from above orbital plane
View from above satellite
View from above satellite

Ground track
Ground track

The orbit data is extracted from the following two-line orbital elements,

1 25544U 98067A   14232.62503928  .00010377  00000-0  18872-3 0  9309
2 25544 051.6465 140.1785 0004525 043.1673 041.9515 15.50125100901325
Epoch (UTC): 20 August 2014 15:00:03
Eccentricity: 0.0004525
inclination: 51.6465°
perigee height: 413 km
apogee height: 419 km
right ascension of ascending node: 140.1785°
argument of perigee: 43.1673°
revolutions per day: 15.50125100
mean anomaly at epoch: 41.9515°
orbit number at epoch: 90132

The dashed part of the orbit path shows where the satellite is in the earth's shadow,  

DLR